Regional Weather Roundup
Issued by NWS State College, PA

Home | Current Version | Previous Version | Text Only | Print | Product List | Glossary On
Versions: 1 2 3 4 5 6 7 8 9 10 11 12 13 14 15 16 17 18 19 20 21 22 23 24 25 26 27 28 29 30 31 32 33 34 35 36 37 38 39 40 41 42 43 44 45 46 47 48 49 50
000
ASUS41 KCTP 210410
RWRCTP

REGIONAL WEATHER ROUNDUP
NATIONAL WEATHER SERVICE STATE COLLEGE PA
1200 AM EDT TUE OCT 21 2014

Note: "fair" indicates few or no clouds below 12,000 feet with no
significant weather and/or obstructions to visibility.

* = STATION THAT DOES NOT REPORT PRECIPITATION /E.G. RAIN...SNOW...ETC/
    THUNDER OR FOG.

PAZ002>004-007>009-013>016-020>023-029>032-210500-
WESTERN PENNSYLVANIA

CITY           SKY/WX    TMP DP  RH WIND       PRES   REMARKS
ERIE           CLOUDY    52  48  86 SW10      29.82S
MEADVILLE      LGT RAIN  49  46  90 SW8       29.83F FOG
FRANKLIN*      CLOUDY    48  45  87 S7        29.86F
NEW CASTLE     LGT RAIN  49  49 100 CALM      29.87S FOG
BEAVER COUNTY  NOT AVBL
BUTLER*        CLOUDY    48  45  87 S5        29.88F
PITTSBURGH INT CLOUDY    51  46  83 SW7       29.86F
PITTSBURGH     CLOUDY    50  44  80 S6        29.86F
INDIANA*       CLOUDY    50  46  87 SW5       29.92F
LATROBE        CLOUDY    52  48  87 S3        29.89F
WASHINGTON CO* CLOUDY    50  46  87 SW6       29.89S
$$

PAZ004>006-010>012-017>019-024>028-033>037-041-042-045-046-049>053-210500-
CENTRAL PENNSYLVANIA

CITY           SKY/WX    TMP DP  RH WIND       PRES   REMARKS
BRADFORD       LGT RAIN  46  43  89 S6        29.85F
DUBOIS         CLOUDY    47  44  90 SW7       29.86F
CLEARFIELD     CLOUDY    47  42  83 CALM      29.88F
JOHNSTOWN      CLOUDY    49  41  74 SW10      29.88F
ALTOONA        CLOUDY    49  43  80 S5        29.90F
STATE COLLEGE  CLOUDY    48  41  76 CALM      29.89F
WILLIAMSPORT   CLOUDY    50  41  71 CALM      29.89F
SELINSGROVE    CLOUDY    50  45  83 CALM      29.90F
FT INDIANTOWN  CLOUDY    51  51  99 N1        29.92F
CAPITAL CITY   CLOUDY    56  46  69 NE3       29.92S
HARRISBURG     CLOUDY    54  49  83 CALM      29.91F
YORK           CLOUDY    55  49  80 CALM      29.92F
$$

PAZ038>040-043-044-047-048-054-055-060>062-067>071-210500-
EASTERN PENNSYLVANIA

CITY           SKY/WX    TMP DP  RH WIND       PRES   REMARKS
SCRANTON       CLOUDY    54  41  61 SW3       29.91F
MOUNT POCONO   CLOUDY    48  42  80 S8        29.92F
ALLENTOWN      LGT RAIN  54  45  71 SW5       29.95F
QUAKERTOWN*    CLOUDY    54  45  71 SW3       29.96S
READING        CLOUDY    56  48  74 S9        29.92F
LANCASTER      CLOUDY    54  48  80 S9        29.93F
COATESVILLE    CLOUDY    54  46  76 CALM      29.96F
POTTSTOWN      CLOUDY    55  43  63 VRB3      29.96F
BLUE BELL      CLOUDY    54  45  71 CALM      29.95F
DOYLESTOWN     CLOUDY    51  44  77 SW3       29.95F
WILLOW GROVE   NOT AVBL
NORTH PHILA    CLOUDY    55  42  61 CALM      29.97F
PHILADELPHIA   CLOUDY    57  44  62 S6        29.96F
$$


USA.gov is the U.S. government's official web portal to all federal, state and local government web resources and services.